• In Uzbekistan
  • List of Countries
  • For 7 days
  • Water Temperature
  • Satellite Maps
  • Weather Map
  • Weather Widgets
  • user-avatar
    Login

    Hourly Weather Luginy

    Today, 18 February, Monday

    Time Temperature Precipitation Wind Pressure Humidity
    00:00 +3°C° 0 mm 4 mps 749 mmHg 88%
    01:00 +2°C° 0 mm 3 mps 749 mmHg 91%
    02:00 +1°C° 0 mm 3 mps 750 mmHg 93%
    03:00 +1°C° 0 mm 3 mps 750 mmHg 94%
    04:00 +1°C° 0 mm 2 mps 750 mmHg 95%
    05:00 -1°C° 0 mm 2 mps 750 mmHg 95%
    06:00 -1°C° 0 mm 2 mps 750 mmHg 94%
    07:00 -1°C° 0 mm 2 mps 751 mmHg 93%
    08:00 -2°C° 0 mm 2 mps 751 mmHg 92%
    09:00 +1°C° 0 mm 2 mps 751 mmHg 82%
    10:00 +2°C° 0 mm 2 mps 752 mmHg 71%
    11:00 +4°C° 0 mm 1 mps 752 mmHg 61%
    12:00 +5°C° 0 mm 1 mps 752 mmHg 56%
    13:00 +5°C° 0 mm 1 mps 752 mmHg 51%
    14:00 +6°C° 0 mm 1 mps 752 mmHg 46%
    15:00 +6°C° 0 mm 1 mps 752 mmHg 49%
    16:00 +5°C° 0 mm 1 mps 752 mmHg 51%
    17:00 +4°C° 0 mm 1 mps 752 mmHg 54%
    18:00 +4°C° 0 mm 1 mps 752 mmHg 57%
    19:00 +3°C° 0 mm 1 mps 752 mmHg 60%
    20:00 +2°C° 0 mm 1 mps 752 mmHg 63%
    21:00 +1°C° 0 mm 2 mps 752 mmHg 64%
    22:00 -1°C° 0 mm 2 mps 752 mmHg 66%
    23:00 -1°C° 0 mm 2 mps 752 mmHg 67%

    Tomorrow, 19 February, Tuesday

    Time Temperature Precipitation Wind Pressure Humidity
    00:00 -1°C° 0 mm 2 mps 752 mmHg 68%
    01:00 -2°C° 0 mm 2 mps 752 mmHg 68%
    02:00 -2°C° 0 mm 2 mps 753 mmHg 69%
    03:00 -2°C° 0 mm 2 mps 752 mmHg 70%
    04:00 -2°C° 0 mm 3 mps 752 mmHg 71%
    05:00 -2°C° 0 mm 3 mps 751 mmHg 72%
    06:00 -2°C° 0 mm 3 mps 751 mmHg 73%
    07:00 -1°C° 0 mm 3 mps 751 mmHg 74%
    08:00 -1°C° 0 mm 3 mps 751 mmHg 75%
    09:00 -1°C° 0 mm 4 mps 751 mmHg 70%
    10:00 +1°C° 0 mm 4 mps 750 mmHg 66%
    11:00 +2°C° 0 mm 5 mps 750 mmHg 62%
    12:00 +3°C° 0 mm 5 mps 750 mmHg 61%
    13:00 +5°C° 0 mm 5 mps 749 mmHg 61%
    14:00 +6°C° 0 mm 5 mps 749 mmHg 60%
    15:00 +5°C° 0 mm 5 mps 748 mmHg 65%
    16:00 +4°C° 0 mm 4 mps 747 mmHg 69%
    17:00 +4°C° 0 mm 4 mps 747 mmHg 74%
    18:00 +3°C° 0 mm 4 mps 747 mmHg 77%
    19:00 +1°C° 0 mm 4 mps 746 mmHg 81%
    20:00 +1°C° 0 mm 5 mps 746 mmHg 84%
    21:00 +1°C° 0 mm 5 mps 746 mmHg 86%
    22:00 0°C° 0 mm 5 mps 745 mmHg 88%
    23:00 0°C° 0 mm 4 mps 745 mmHg 89%

    Day after tomorrow, 20 February, Wednesday

    Time Temperature Precipitation Wind Pressure Humidity
    00:00 0°C° 0 mm 4 mps 745 mmHg 90%
    01:00 0°C° 0 mm 4 mps 745 mmHg 91%
    02:00 0°C° 0 mm 4 mps 744 mmHg 91%
    03:00 -1°C° 0 mm 4 mps 744 mmHg 91%
    04:00 -1°C° 0 mm 4 mps 744 mmHg 91%
    05:00 -1°C° 0 mm 4 mps 743 mmHg 91%
    06:00 -1°C° 0 mm 4 mps 743 mmHg 91%
    07:00 -1°C° 0 mm 4 mps 743 mmHg 92%
    08:00 -1°C° 0 mm 4 mps 743 mmHg 92%
    09:00 0°C° 0 mm 4 mps 744 mmHg 88%
    10:00 +3°C° 0 mm 4 mps 744 mmHg 85%
    11:00 +3°C° 0 mm 5 mps 744 mmHg 82%
    12:00 +5°C° 0 mm 5 mps 744 mmHg 73%
    13:00 +6°C° 0 mm 5 mps 744 mmHg 65%
    14:00 +7°C° 0 mm 6 mps 744 mmHg 57%
    15:00 +6°C° 0 mm 5 mps 744 mmHg 60%
    16:00 +6°C° 0 mm 5 mps 744 mmHg 63%
    17:00 +5°C° 0 mm 4 mps 744 mmHg 66%
    18:00 +4°C° 0 mm 4 mps 745 mmHg 68%
    19:00 +4°C° 0 mm 4 mps 745 mmHg 71%
    20:00 +2°C° 0 mm 5 mps 745 mmHg 73%
    21:00 +2°C° 0 mm 5 mps 745 mmHg 75%
    22:00 +2°C° 0 mm 5 mps 745 mmHg 78%
    23:00 +1°C° 0 mm 5 mps 745 mmHg 80%

    21 February, Thursday

    Time Temperature Precipitation Wind Pressure Humidity
    00:00 +1°C° 0 mm 5 mps 745 mmHg 82%
    01:00 +1°C° 0 mm 5 mps 745 mmHg 83%
    02:00 +1°C° 0 mm 5 mps 745 mmHg 85%
    03:00 +1°C° 0 mm 5 mps 745 mmHg 84%
    04:00 +1°C° 0 mm 5 mps 745 mmHg 84%
    05:00 +1°C° 0 mm 6 mps 745 mmHg 83%
    06:00 +1°C° 0.1 mm 5 mps 745 mmHg 83%
    07:00 +1°C° 0.1 mm 5 mps 746 mmHg 83%
    08:00 +1°C° 0.1 mm 5 mps 746 mmHg 83%
    09:00 +1°C° 0 mm 6 mps 746 mmHg 79%
    10:00 +2°C° 0 mm 6 mps 746 mmHg 74%
    11:00 +2°C° 0 mm 6 mps 746 mmHg 70%
    12:00 +3°C° 0 mm 6 mps 746 mmHg 71%
    13:00 +3°C° 0 mm 6 mps 746 mmHg 72%
    14:00 +3°C° 0 mm 6 mps 746 mmHg 73%
    15:00 +3°C° 0.1 mm 6 mps 746 mmHg 75%
    16:00 +3°C° 0.1 mm 5 mps 746 mmHg 77%
    17:00 +2°C° 0.1 mm 5 mps 746 mmHg 80%
    18:00 +1°C° 0.1 mm 4 mps 747 mmHg 75%
    19:00 0°C° 0.1 mm 4 mps 747 mmHg 70%
    20:00 -1°C° 0.1 mm 4 mps 748 mmHg 65%
    21:00 -1°C° 0 mm 3 mps 749 mmHg 66%
    22:00 -2°C° 0 mm 3 mps 749 mmHg 67%
    23:00 -3°C° 0 mm 2 mps 750 mmHg 68%

    22 February, Friday

    Time Temperature Precipitation Wind Pressure Humidity
    00:00 -3°C° 0 mm 2 mps 750 mmHg 65%
    01:00 -4°C° 0 mm 3 mps 751 mmHg 61%
    02:00 -4°C° 0 mm 3 mps 751 mmHg 58%
    03:00 -4°C° 0 mm 3 mps 751 mmHg 57%
    04:00 -4°C° 0 mm 3 mps 752 mmHg 56%
    05:00 -4°C° 0 mm 3 mps 752 mmHg 55%
    06:00 -5°C° 0 mm 4 mps 753 mmHg 56%
    07:00 -5°C° 0 mm 4 mps 753 mmHg 56%
    08:00 -5°C° 0 mm 4 mps 754 mmHg 56%
    09:00 -5°C° 0 mm 4 mps 754 mmHg 54%
    10:00 -5°C° 0 mm 5 mps 755 mmHg 51%
    11:00 -5°C° 0 mm 5 mps 755 mmHg 48%
    12:00 -5°C° 0 mm 5 mps 755 mmHg 45%
    13:00 -5°C° 0 mm 6 mps 756 mmHg 42%
    14:00 -4°C° 0 mm 6 mps 756 mmHg 39%
    15:00 -5°C° 0 mm 6 mps 756 mmHg 39%
    16:00 -6°C° 0 mm 6 mps 757 mmHg 39%
    17:00 -6°C° 0 mm 6 mps 757 mmHg 39%
    18:00 -7°C° 0 mm 5 mps 758 mmHg 41%
    19:00 -7°C° 0 mm 5 mps 759 mmHg 42%
    20:00 -8°C° 0 mm 5 mps 759 mmHg 44%
    21:00 -8°C° 0 mm 5 mps 760 mmHg 44%
    22:00 -8°C° 0 mm 5 mps 760 mmHg 45%
    23:00 -8°C° 0 mm 5 mps 760 mmHg 46%

    23 February, Saturday

    Time Temperature Precipitation Wind Pressure Humidity
    00:00 -8°C° 0 mm 4 mps 761 mmHg 47%
    01:00 -9°C° 0 mm 4 mps 761 mmHg 48%
    02:00 -9°C° 0 mm 4 mps 761 mmHg 49%
    03:00 -9°C° 0 mm 4 mps 761 mmHg 50%
    04:00 -9°C° 0 mm 4 mps 761 mmHg 51%
    05:00 -9°C° 0 mm 4 mps 762 mmHg 53%
    06:00 -9°C° 0 mm 4 mps 762 mmHg 53%
    07:00 -9°C° 0 mm 4 mps 762 mmHg 54%
    08:00 -9°C° 0 mm 4 mps 762 mmHg 55%
    09:00 -8°C° 0 mm 3 mps 762 mmHg 51%
    10:00 -7°C° 0 mm 3 mps 763 mmHg 46%
    11:00 -6°C° 0 mm 3 mps 763 mmHg 42%
    12:00 -5°C° 0 mm 3 mps 762 mmHg 39%
    13:00 -4°C° 0 mm 3 mps 762 mmHg 35%
    14:00 -2°C° 0 mm 3 mps 762 mmHg 31%
    15:00 -2°C° 0 mm 3 mps 761 mmHg 31%
    16:00 -2°C° 0 mm 3 mps 761 mmHg 32%
    17:00 -2°C° 0 mm 3 mps 761 mmHg 32%
    18:00 -3°C° 0 mm 2 mps 761 mmHg 34%
    19:00 -3°C° 0 mm 2 mps 761 mmHg 36%
    20:00 -3°C° 0 mm 2 mps 760 mmHg 38%
    21:00 -3°C° 0 mm 2 mps 760 mmHg 45%
    22:00 -3°C° 0 mm 2 mps 760 mmHg 52%
    23:00 -4°C° 0 mm 3 mps 759 mmHg 58%
    Show more